Location: Milton Keynes
(52.0316°N, 0.7531°W)
Time: 23:06:23
(UTC+00:00)

N. Korean satellite - Pass Details

Date: 27 September 2020
Orbit: 452 x 505 km, 97.2° (Epoch: 29 October)

Event Time Altitude Azimuth Distance (km) Brightness Sun altitude
Rises 05:25:00 0° 31° (NNE) 2,598 11.0 -14.9°
Reaches altitude 10° 05:28:23 10° 65° (ENE) 1,694 10.7 -14.4°
Maximum altitude 05:29:44 12° 87° (E) 1,581 10.4 -14.2°
Drops below altitude 10° 05:31:05 10° 109° (ESE) 1,677 10.2 -14.0°
Sets 05:34:22 0° 143° (SE) 2,535 10.5 -13.5°
